User: anonymous   Login
Location: Goheenville
(40.9070°N, 79.3720°W)
Time: 23:55:40
(UTC-04:00)
Language:

Cosmos 1727 Rocket - Orbit

View from above orbital plane
View from above orbital plane
View from above satellite
View from above satellite

Ground track
Ground track

The orbit data is extracted from the following two-line orbital elements,

1 16511U 86008B   15116.44109907  .00000061  00000-0  47220-4 0  9990
2 16511 082.9439 080.3915 0023223 311.8906 195.7010 13.75794670468647
Epoch (UTC): 26 April 2015 10:35:10
Eccentricity: 0.0023223
inclination: 82.9439°
perigee height: 962 km
apogee height: 996 km
right ascension of ascending node: 80.3915°
argument of perigee: 311.8906°
revolutions per day: 13.75794670
mean anomaly at epoch: 195.7010°
orbit number at epoch: 46864

The dashed part of the orbit path shows where the satellite is in the earth's shadow,  

DLR